TimeJST,TemperatureF,Dew PointF,Humidity,Sea Level PressureIn,VisibilityMPH,Wind Direction,Wind SpeedMPH,Gust SpeedMPH,PrecipitationIn,Events,Conditions,WindDirDegrees,DateUTC
12:00 AM,69,60,65,30.09,,ENE,10.4,,,,,60,2012-11-19 15:00:00
3:00 AM,69,60,65,30.07,12,ENE,8.1,,,,Scattered Clouds,70,2012-11-19 18:00:00
6:00 AM,68,60,68,30.08,12,NE,9.2,,,,Scattered Clouds,50,2012-11-19 21:00:00
6:00 AM,64.4,59.0,83,30.06,6.2,NE,6.9,-,N/A,,Partly Cloudy,50,2012-11-19 21:00:00
7:00 AM,64.4,59.0,83,30.09,6.2,NE,6.9,-,N/A,,Partly Cloudy,50,2012-11-19 22:00:00
8:00 AM,68.0,60.8,78,30.09,6.2,NE,4.6,-,N/A,,Partly Cloudy,40,2012-11-19 23:00:00
9:00 AM,73,60,54,30.13,16,ENE,6.9,,,,Partly Cloudy,70,2012-11-20 00:00:00
9:00 AM,73.4,60.8,65,30.09,6.2,ENE,8.1,-,N/A,,Partly Cloudy,70,2012-11-20 00:00:00
10:00 AM,73.4,59.0,61,30.09,6.2,East,9.2,-,N/A,,Partly Cloudy,80,2012-11-20 01:00:00
11:00 AM,75.2,60.8,61,30.09,6.2,East,10.4,-,N/A,,Partly Cloudy,90,2012-11-20 02:00:00
12:00 PM,77,61,49,30.10,19,East,10.4,,,,Scattered Clouds,80,2012-11-20 03:00:00
12:00 PM,75.2,60.8,61,30.06,6.2,East,10.4,-,N/A,,Partly Cloudy,80,2012-11-20 03:00:00
1:00 PM,75.2,60.8,61,30.06,6.2,East,11.5,-,N/A,,Partly Cloudy,80,2012-11-20 04:00:00
2:00 PM,75.2,60.8,61,30.04,6.2,East,10.4,-,N/A,,Partly Cloudy,90,2012-11-20 05:00:00
3:00 PM,76,61,51,30.02,19,East,11.5,,,,Scattered Clouds,100,2012-11-20 06:00:00
3:00 PM,75.2,60.8,61,30.01,6.2,East,12.7,-,N/A,,Partly Cloudy,90,2012-11-20 06:00:00
4:00 PM,73.4,60.8,65,30.01,6.2,East,9.2,-,N/A,,Partly Cloudy,90,2012-11-20 07:00:00
5:00 PM,73.4,60.8,65,30.01,6.2,East,8.1,-,N/A,,Partly Cloudy,80,2012-11-20 08:00:00
6:00 PM,73,60,55,30.04,12,East,10.4,,,,Partly Cloudy,90,2012-11-20 09:00:00
6:00 PM,71.6,60.8,69,30.04,6.2,East,8.1,-,N/A,,Partly Cloudy,80,2012-11-20 09:00:00
7:00 PM,68.0,60.8,78,30.04,6.2,ENE,5.8,-,N/A,,Partly Cloudy,60,2012-11-20 10:00:00
8:00 PM,68.0,60.8,78,30.06,6.2,NNE,5.8,-,N/A,,Partly Cloudy,30,2012-11-20 11:00:00
9:00 PM,73,62,59,30.08,9,East,10.4,,,,Mostly Cloudy,90,2012-11-20 12:00:00